Location: Ammerl�gen
(47.2167°N, 9.6000°E)
Time: 10:12:21
(UTC+00:00)

Cosmos 192 - Pass Details

Date: 21 April 2021
Orbit: 700 x 713 km, 74.0° (Epoch: 06 May)

Event Time Altitude Azimuth Distance (km) Brightness Sun altitude
Rises 19:38:23 0° 336° (NNW) 3,127 8.7 -12.8°
Reaches altitude 10° 19:40:43 10° 335° (NNW) 2,202 7.8 -13.2°
Maximum altitude 19:45:42 79° 250° (WSW) 731 4.4 -13.8°
Enters shadow 19:49:49 15° 165° (SSE) 1,870 6.1 -14.4°
